Weather History for Tampa, FL

Change the Weather History Date:

Wednesday, August 8, 2012

  Actual Average Record
Temperature  
Mean Temperature 86 °F 83 °F  
Max Temperature 92 °F 90 °F 96 °F (1987)
Min Temperature 79 °F 76 °F 69 °F (1965)
Degree Days  
Heating Degree Days 0 0  
Month to date heating degree days 0 0  
Since 1 June heating degree days 0 0  
Since 1 July heating degree days 0 0  
Cooling Degree Days 21 18  
Month to date cooling degree days 155 144  
Year to date cooling degree days 2497 2095  
Since 1 June cooling degree days 1205 1218  
Growing Degree Days 35 (Base 50)    
Moisture  
Dew Point 74 °F    
Average Humidity 71    
Maximum Humidity 85    
Minimum Humidity 56    
Precipitation  
Precipitation 0.00 in 0.25 in 2.55 in (1970)
Month to date precipitation 0.48 1.94  
Year to date precipitation 36.37 27.89  
Sea Level Pressure  
Sea Level Pressure 30.02 in    
Wind  
Wind Speed 5 mph (SW)    
Max Wind Speed 13 mph    
Max Gust Speed 17 mph    
Visibility 10 miles    
Events      
T = Trace of Precipitation, MM = Missing Value Source: NWS Daily Summary

Daily Weather History Graph

Daily Weather History Graph

Search for Another Location

Airport:

Trip Planner

Search our weather history database for the weather conditions in past years. The results will help you decide how hot, cold, wet, or windy it might be!

Date:

Astronomy

Aug. 08, 2012 Rise Set
Actual Time 6:56 AM EDT 8:14 PM EDT
Civil Twilight 6:31 AM EDT 8:39 PM EDT
Nautical Twilight 6:02 AM EDT 9:08 PM EDT
Astronomical Twilight 5:31 AM EDT 9:39 PM EDT
Moon No Moon Rise 12:59 PM EDT (8/8)
Length of Visible Light 14h 07m
Length of Day
13h 17m
Waning Gibbous, 61% of the Moon is Illuminated
Aug 8
Waning Gibbous
Aug 9
Last Quarter
Aug 17
New
Aug 24
First Quarter
Aug 31
Full

Hourly Weather History & Observations

Time (EDT) Temp. Heat Index Dew Point Humidity Pressure Visibility Wind Dir Wind Speed Gust Speed Precip Events Conditions
12:53 AM 82.9 °F 90.2 °F 75.0 °F 77% 30.03 in 10.0 mi SE 3.5 mph - N/A   Mostly Cloudy
1:53 AM 82.0 °F 87.4 °F 73.0 °F 74% 30.02 in 10.0 mi Calm Calm - N/A   Mostly Cloudy
2:53 AM 82.0 °F 87.4 °F 73.0 °F 74% 30.00 in 10.0 mi Calm Calm - N/A   Mostly Cloudy
3:53 AM 81.0 °F 85.8 °F 73.0 °F 77% 30.00 in 10.0 mi Calm Calm - N/A   Scattered Clouds
4:53 AM 80.1 °F 84.2 °F 73.0 °F 79% 29.99 in 10.0 mi Calm Calm - N/A   Scattered Clouds
5:53 AM 80.1 °F 84.2 °F 73.0 °F 79% 30.00 in 10.0 mi Calm Calm - N/A   Scattered Clouds
6:53 AM 79.0 °F - 73.9 °F 84% 30.02 in 10.0 mi Calm Calm - N/A   Scattered Clouds
7:53 AM 81.0 °F 86.7 °F 75.0 °F 82% 30.04 in 10.0 mi Calm Calm - N/A   Scattered Clouds
8:53 AM 82.9 °F 90.2 °F 75.0 °F 77% 30.05 in 10.0 mi SE 3.5 mph - N/A   Overcast
9:53 AM 84.9 °F 94.1 °F 75.9 °F 74% 30.06 in 10.0 mi Variable 4.6 mph - N/A   Scattered Clouds
10:53 AM 87.1 °F 97.3 °F 75.9 °F 69% 30.07 in 10.0 mi Variable 5.8 mph - N/A   Scattered Clouds
11:53 AM 88.0 °F 96.5 °F 73.9 °F 63% 30.06 in 10.0 mi SSW 8.1 mph - N/A   Scattered Clouds
12:53 PM 89.1 °F 99.1 °F 75.0 °F 63% 30.06 in 10.0 mi SSW 9.2 mph - N/A   Scattered Clouds
1:53 PM 90.0 °F 100.2 °F 75.0 °F 61% 30.04 in 10.0 mi SSW 10.4 mph - N/A   Scattered Clouds
2:53 PM 90.0 °F 99.0 °F 73.9 °F 59% 30.02 in 10.0 mi South 9.2 mph - N/A   Scattered Clouds
3:53 PM 91.9 °F 100.7 °F 73.0 °F 54% 30.01 in 10.0 mi South 6.9 mph - N/A   Scattered Clouds
4:53 PM 91.0 °F 100.4 °F 73.9 °F 57% 29.99 in 10.0 mi WSW 10.4 mph - N/A   Mostly Cloudy
5:53 PM 90.0 °F 100.2 °F 75.0 °F 61% 30.00 in 10.0 mi West 10.4 mph - N/A   Mostly Cloudy
6:53 PM 89.6 °F 98.2 °F 73.4 °F 59% 30.01 in 10.0 mi West 10.4 mph - N/A   Mostly Cloudy
7:53 PM 86.0 °F 93.8 °F 73.9 °F 67% 30.01 in 10.0 mi NW 6.9 mph - N/A   Mostly Cloudy
8:53 PM 84.0 °F 91.9 °F 75.0 °F 74% 30.02 in 10.0 mi NW 4.6 mph - N/A   Scattered Clouds
9:53 PM 84.0 °F 91.9 °F 75.0 °F 74% 30.03 in 10.0 mi NNW 3.5 mph - N/A   Scattered Clouds
10:53 PM 82.9 °F 90.8 °F 75.9 °F 79% 30.04 in 10.0 mi NW 4.6 mph - N/A   Partly Cloudy
11:53 PM 82.9 °F 87.5 °F 71.1 °F 67% 30.04 in 10.0 mi ESE 3.5 mph - N/A   Partly Cloudy